SL-18 DEB, 22568

Orbit data source: Space-Track

SL-18 DEB, 22568 is space debris in LEO originally from a launch on Thu, 25 Mar 1993 UTC launched from the Plesetsk Missile And Space Complex (PKMTR). Debris objects in space refer to the collection of defunct objects orbiting the Earth. Examples of debris include non-operational satellites, rocket bodies, and fragments generated from explosions, collisions, or faulty payload assembly.

Loading next visibility...
Identifier
22568, 1993-014D
Orbit
LEO
Country
Flag of CISCIS
Related business
Manufacturer
Kompleks-MIT
Mission
Spacecraft
Bus & Motor
Unknown
Mass
Unknown
Launch date (UTC)
1993-03-25 (33 years ago)
Launch vehicle
Unknown
Launch site
Plesetsk Missile And Space Complex (PKMTR)
Object type
Payload
Rocket body
Debris
Shape & HBR
Unknown shape, 0.1 m
Radar Cross Section
Medium (>0.1 m² and <1 m²)

Expand to show TLE details & history
Last TLE update: 2 days ago

TLE from 2 days ago
0 SL-18 DEB
1 22568U 93014D   26171.15132051  .00001145  00000-0  28959-3 0  9992
2 22568  75.7461  69.9138 0146100 136.2280  14.0291 14.45313462734986
Epoch: 2026-06-20T03:37Z
TLE epoch observation values (Epoch: 2026-06-20T03:37:54.092Z)
Latitude
28.39459°
Longitude
-80.78175°
Altitude
643.451 km
Speed
7.592 km/s
True Right ascension
16h 08m 15s
True Declination
28° 14' 55"
Sunlit
Object was in full shadow at epoch
Visualization orbit readout
Latitude
Unknown
Longitude
Unknown
Altitude
Unknown
Speed
Unknown
Apparent Right ascension
Unknown
Apparent Declination
Unknown
Sunlit
N/A
Visualization observer readout
Local Sidereal Time
00:51:01
Azimuth
Unknown
Elevation
Unknown
Doppler factor
Unknown
Orbital elements
Apogee altitude
842.444 km
Perigee altitude
634.497 km
Semi-major axis
7,116.607 km
Eccentricity
0.01461
Inclination
75.7461°
RAAN
69.9138°
Arg. of periapsis
136.228°
True anomaly
14.44226°
Mean anomaly
14.0291°
Eccentric anomaly
14.23494°
Mean motion
3.61521 °/min
Orbital period
99.58 mins
BSTAR
0.00028959
Loading maneuver chart data...
Computing Atmospheric mass density...

Documentation

Showing up to 5 results
|